Regional Weather Roundup
Issued by NWS

Home | Current Version | Previous Version | Graphics & Text | Print | Product List | Glossary On
Versions: 1 2 3 4 5 6 7 8 9 10 11 12 13 14 15 16 17 18 19 20 21 22 23 24 25 26 27 28 29 30 31 32 33 34 35 36 37 38 39 40 41 42 43 44 45 46 47 48 49 50
056
ASUS43 KOAX 240810
RWRNE

WEATHER ROUNDUP FOR NEBRASKA
NATIONAL WEATHER SERVICE OMAHA NE
300 AM CDT THU MAY 24 2018

NOTES: SATELLITE DATA IS BEING USED TO AUGMENT CLOUD COVER ABOVE
       12000 FEET.
       "FAIR" INDICATES FEW OR NO CLOUDS BELOW 12,000 FEET WITH NO
       SIGNIFICANT WEATHER AND/OR OBSTRUCTIONS TO VISIBILITY.


NEZ001>004-019>022-054>056-240900-
NEBRASKA PANHANDLE

CITY           SKY/WX    TMP DP  RH WIND       PRES   REMARKS
SCOTTSBLUFF    CLEAR     51  50  96 NW8       30.02R
ALLIANCE       PTCLDY    54  53  97 CALM      29.98S
CHADRON        CLEAR     53  51  93 W5        29.97R
GORDON         FAIR      56  51  81 SE6       29.97F
KIMBALL        CLEAR     53  47  81 CALM      30.05S
SIDNEY         MOCLDY    56  53  90 N9        30.01R
$$

NEZ057>060-069>072-079>082-240900-
SOUTHWEST NEBRASKA

CITY           SKY/WX    TMP DP  RH WIND       PRES   REMARKS
NORTH PLATTE   CLOUDY    68  58  70 SE8       29.97F
IMPERIAL       CLOUDY    66  59  78 S13       29.95F
LEXINGTON      MOCLDY    67  59  77 S12       29.98F
MCCOOK         CLOUDY    67  58  72 S7        29.97S
OGALLALA       MOCLDY    64  60  87 E7        29.96F
$$

NEZ005>010-023>029-035>040-094-240900-
NORTH CENTRAL NEBRASKA

CITY           SKY/WX    TMP DP  RH WIND       PRES   REMARKS
VALENTINE      CLOUDY    63  58  83 E13       29.94F
AINSWORTH      CLOUDY    61  60  96 NE9       30.02F
BROKEN BOW     MOCLDY    67  60  78 NE3       29.99F
O`NEILL        CLOUDY    70  58  67 W8        30.03R
ORD            MOCLDY    68  62  81 CALM      29.99R
THEDFORD       CLOUDY    61  58  89 E14       30.03F
$$

NEZ041-046>049-061>064-073>077-083>087-240900-
SOUTH CENTRAL NEBRASKA

CITY           SKY/WX    TMP DP  RH WIND       PRES   REMARKS
GRAND ISLAND   CLOUDY    71  64  78 S10       30.01R
AURORA         CLOUDY    70  65  85 S10       30.01S
HASTINGS       PTCLDY    70  65  84 S6        30.02R
HEBRON         CLOUDY    73  63  71 S8        30.02R
HOLDREGE       PTCLDY    65  59  83 S10       30.00S
KEARNEY        CLOUDY    68  60  75 S17       30.00F
YORK           MOCLDY    72  68  88 S7        30.02R
$$

NEZ011>018-030>034-042>045-240900-
NORTHEAST NEBRASKA

CITY           SKY/WX    TMP DP  RH WIND       PRES   REMARKS
NORFOLK        CLOUDY    72  63  73 S14       29.99S
ALBION         CLOUDY    71  65  82 S6        29.99S
BLAIR          PTCLDY    74  64  72 SE8       30.04R
COLUMBUS       CLOUDY    73  65  75 S12       30.01
FREMONT        PTCLDY    73  64  72 SE9       30.02S
TEKAMAH        CLEAR     68  63  84 SE12      30.01S
WAYNE          CLOUDY    71  68  90 S12       30.00R
$$

NEZ050>053-065>068-078-088>093-240900-
SOUTHEAST NEBRASKA

CITY           SKY/WX    TMP DP  RH WIND       PRES   REMARKS
LINCOLN        PTCLDY    72  65  78 S7        30.03R
OMAHA EPPLEY   PTCLDY    71  63  75 SE7       30.03S
BEATRICE       PTCLDY    72  66  81 S12       30.03R
FALLS CITY     CLOUDY    71  65  81 S7        30.05R
NEBRASKA CITY  PTCLDY    71  68  91 S8        30.05R
PLATTSMOUTH    MOCLDY    71  64  79 SE6       30.04S
$$

NEZ044-045-051>053-067-240900-
OMAHA AREA

CITY           SKY/WX    TMP DP  RH WIND       PRES   REMARKS
OMAHA EPPLEY   PTCLDY    71  63  75 SE7       30.03S
BLAIR          PTCLDY    74  64  72 SE8       30.04R
FREMONT        PTCLDY    73  64  72 SE9       30.02S
MILLARD        PTCLDY    73  65  77 SE3       30.03R
OFFUTT AFB     MOCLDY    69  64  83 SE6       30.03R
PLATTSMOUTH    MOCLDY    71  64  79 SE6       30.04S
WAHOO          FAIR      68  62  81 SE6       30.02R
$$




USA.gov is the U.S. government's official web portal to all federal, state and local government web resources and services.